This demonstration page uses our WeatherBlox Daily Observations layout. Learn more.

Left ArrowRight Arrow

Hourly Observations for November 26, 2022

Temp ( °F °C ) Dew Point ( °F °C ) Humidity (%) Winds ( mph kmh ) Pressure ( in mb ) Visibility ( mi km ) Precip ( " mm )
12:53 am 00:53 Partly Cloudy 48 8.9 39 3.9 71 71 Calm 30.21 1023 7 11 0.00 0.00
1:53 am 01:53 Clear 48 8.9 38 3.3 68 68 Calm 30.20 1023 8 13 0.00 0.00
2:53 am 02:53 Mostly Clear 48 8.9 38 3.3 68 68 ENE 3 6 30.19 1022 9 14 0.00 0.00
3:53 am 03:53 Cloudy 49 9.4 38 3.3 66 66 NW 5 7 30.19 1022 8 13 0.00 0.00
4:53 am 04:53 Cloudy 50 10 38 3.3 63 63 NW 3 6 30.19 1022 9 14 0.00 0.00
5:53 am 05:53 Cloudy 48 8.9 39 3.9 71 71 Calm 30.20 1023 10 16 0.00 0.00
6:53 am 06:53 Cloudy 49 9.4 37 2.8 63 63 NW 6 9 30.21 1023 10 16 0.00 0.00
7:53 am 07:53 Sunny 48 8.9 37 2.8 66 66 VRB 3 6 30.23 1024 10 16 0.00 0.00
8:53 am 08:53 Sunny 58 14.4 37 2.8 46 46 WNW 5 7 30.22 1023 10 16 0.00 0.00
9:53 am 09:53 Sunny 63 17.2 35 1.7 35 35 N 18 30 30.22 1024 10 16 0.00 0.00
10:53 am 10:53 Sunny 65 18.3 36 2.2 34 34 N 21 33 30.21 1023 10 16 0.00 0.00
11:53 am 11:53 Sunny 66 18.9 35 1.7 32 32 N 20 31 30.19 1022 10 16 0.00 0.00
12:53 pm 12:53 Sunny 67 19.4 36 2.2 32 32 N 12 19 30.17 1022 10 16 0.00 0.00
1:53 pm 13:53 Sunny 68 20 32 0 26 26 NNE 21 33 30.14 1021 10 16 0.00 0.00
2:53 pm 14:53 Sunny 69 20.6 29 -1.7 22 22 N 21 33 30.12 1020 10 16 0.00 0.00
3:53 pm 15:53 Sunny 68 20 26 -3.3 20 20 N 15 24 30.11 1020 10 16 0.00 0.00
4:53 pm 16:53 Clear 64 17.8 28 -2.2 25 25 N 10 17 30.11 1020 10 16 0.00 0.00
5:53 pm 17:53 Clear 63 17.2 29 -1.7 27 27 N 10 17 30.12 1020 10 16 0.00 0.00
6:53 pm 18:53 Clear 59 15 31 -0.6 34 34 NNW 5 7 30.13 1020 10 16 0.00 0.00
7:53 pm 19:53 Clear 58 14.4 33 0.6 39 39 N 7 11 30.14 1021 10 16 0.00 0.00
8:53 pm 20:53 Clear 58 14.4 31 -0.6 36 36 N 9 15 30.13 1020 10 16 0.00 0.00
9:53 pm 21:53 Clear 56 13.3 31 -0.6 38 38 NW 5 7 30.14 1021 10 16 0.00 0.00
10:53 pm 22:53 Clear 54 12.2 31 -0.6 41 41 N 6 9 30.12 1020 10 16 0.00 0.00
11:53 pm 23:53 Clear 56 13.3 30 -1.1 37 37 N 9 15 30.10 1019 10 16 0.00 0.00

Powered by AerisWeather